Simultaneous Nadir Overpasses (SNOs) Predictions

Prediction of SNOs between FY3D and LANDSAT-8 Satellite Orbit:

Table of predicted SNOs for the next 14.0 days since TLE Epoch: 12/17/2023
Index Date (FY3D) Time (FY3D) Lat,Lon (FY3D) SZA (FY3D ) Date (LANDSAT-8) Time (LANDSAT-8) Lat,Lon (LANDSAT-8) SZA (LANDSAT-8 ) Distance(km) Time Diff (sec)
1 12/19/2023 01:47:15 73.79, 155.36 97.12 12/19/2023 01:48:27 73.76, 155.51 97.10 5.58 72
2 12/19/2023 02:37:57 -73.68, -37.07 82.99 12/19/2023 02:37:56 -73.69, -37.00 82.98 2.35 1
3 12/19/2023 03:28:38 73.38, 130.94 96.73 12/19/2023 03:27:26 73.45, 130.13 96.78 26.83 72
4 12/21/2023 17:14:17 -74.10, 102.90 82.55 12/21/2023 17:15:27 -73.99, 104.25 82.64 43.05 70
5 12/21/2023 18:04:56 73.71, -88.83 97.08 12/21/2023 18:04:58 73.70, -88.75 97.06 2.93 2
6 12/21/2023 18:55:38 -73.60, 78.75 83.03 12/21/2023 18:54:27 -73.63, 78.74 83.01 3.46 71
7 12/24/2023 08:41:18 74.23, 50.85 97.57 12/24/2023 08:42:26 74.13, 52.81 97.49 60.64 68
8 12/24/2023 09:31:51 -73.68,-140.45 82.98 12/24/2023 09:32:02 -73.70,-140.51 82.96 3.11 11
9 12/24/2023 10:22:37 73.64, 26.96 96.99 12/24/2023 10:21:29 73.61, 26.94 96.95 3.17 68
10 12/27/2023 00:08:19 -74.49, -1.53 82.25 12/27/2023 00:09:24 -74.42, 1.74 82.29 97.64 65
11 12/27/2023 00:58:50 73.73, 167.73 97.00 12/27/2023 00:59:03 73.71, 167.76 96.98 2.27 13
12 12/27/2023 01:49:33 -73.66, -24.78 83.08 12/27/2023 01:48:32 -73.65, -24.73 83.09 1.67 61
13 12/29/2023 16:25:45 -73.75, 116.00 83.12 12/29/2023 16:26:05 -73.74, 116.05 83.13 2.48 20
14 12/29/2023 17:16:30 73.67, -76.51 96.81 12/29/2023 17:15:31 73.69, -76.40 96.82 3.78 59



Historial Predications of SNOs between FY3D and LANDSAT-8
